CW0566 Weather Reports


Display with metric or nautical units.
time (UTC)temp
F
wind
direction
speed
MPH
gust
MPH
rain 1hr
in
rain 24hr
in
rain mn
in
humidity
%
barometer
mb
20260509002015 64 270 1.0 3.0 0.00 0.00 0.00 50 1011.6
20260509001036 64 158 1.0 2.0 0.00 0.00 0.00 50 1011.4
20260509000016 64 315 1.0 3.0 0.00 0.00 0.00 49 1011.3
20260508235015 64 0.0 2.0 0.00 0.00 0.00 49 1011.3
20260508234015 65 270 2.0 7.0 0.00 0.00 0.00 48 1011.3
20260508233016 65 270 1.0 4.0 0.00 0.00 0.00 47 1011.2
20260508232015 65 248 2.0 5.0 0.00 0.00 0.00 47 1011.1
20260508231037 66 315 1.0 3.0 0.00 0.00 0.00 47 1011.1
20260508230017 66 315 2.0 6.0 0.00 0.00 0.00 44 1011.0
20260508225038 67 315 3.0 8.0 0.00 0.00 0.00 44 1010.9
20260508224017 67 315 5.0 11.0 0.00 0.00 0.00 42 1010.9
20260508223015 67 315 5.0 10.0 0.00 0.00 0.00 40 1010.8
20260508222018 67 270 3.0 7.0 0.00 0.00 0.00 42 1010.7
20260508221017 67 293 4.0 10.0 0.00 0.00 0.00 43 1010.8
20260508220017 67 315 4.0 11.0 0.00 0.00 0.00 42 1010.9
20260508215017 67 293 2.0 7.0 0.00 0.00 0.00 42 1010.7
20260508214017 67 315 4.0 11.0 0.00 0.00 0.00 40 1010.7
20260508213018 69 315 3.0 8.0 0.00 0.00 0.00 39 1010.6
20260508212017 70 293 4.0 10.0 0.00 0.00 0.00 39 1010.7
20260508211017 69 0 3.0 9.0 0.00 0.00 0.00 39 1010.8
20260508210017 69 338 7.0 16.0 0.00 0.00 0.00 38 1010.8
20260508205017 68 293 5.0 11.0 0.00 0.00 0.00 41 1010.9
20260508204017 68 293 5.0 12.0 0.00 0.00 0.00 41 1010.9
20260508203119 68 315 4.0 11.0 0.00 0.00 0.00 39 1011.0
20260508202017 69 293 6.0 13.0 0.00 0.00 0.00 39 1011.1
20260508201017 69 315 5.0 15.0 0.00 0.00 0.00 40 1011.1
20260508200017 68 315 7.0 14.0 0.00 0.00 0.00 40 1011.3
20260508195017 68 315 7.0 19.0 0.00 0.00 0.00 41 1011.3
20260508194037 68 293 3.0 8.0 0.00 0.00 0.00 40 1011.5
20260508193037 69 293 8.0 13.0 0.00 0.00 0.00 41 1011.4
20260508192037 70 270 5.0 11.0 0.00 0.00 0.00 43 1011.4
20260508191017 68 315 7.0 19.0 0.00 0.00 0.00 43 1011.4
20260508190017 66 315 5.0 11.0 0.00 0.00 0.00 47 1011.5
20260508185057 66 293 5.0 12.0 0.00 0.00 0.00 44 1011.8
20260508184017 67 293 5.0 12.0 0.00 0.00 0.00 44 1011.9
20260508183038 67 293 4.0 8.0 0.00 0.00 0.00 48 1011.8
20260508182017 66 315 5.0 10.0 0.00 0.00 0.00 45 1012.0
20260508181017 66 293 6.0 13.0 0.00 0.00 0.00 47 1012.3
20260508180018 65 315 3.0 11.0 0.00 0.00 0.00 46 1012.5
20260508175017 66 293 6.0 12.0 0.00 0.00 0.00 45 1012.6
20260508174017 67 315 7.0 15.0 0.00 0.00 0.00 44 1012.6
20260508173016 67 293 7.0 16.0 0.00 0.00 0.00 45 1012.5
20260508172038 66 270 7.0 13.0 0.00 0.00 0.00 45 1012.7
20260508171017 66 270 6.0 14.0 0.00 0.00 0.00 44 1012.6
20260508170016 66 270 6.0 13.0 0.00 0.00 0.00 43 1012.7
20260508165016 66 270 7.0 13.0 0.00 0.00 0.00 44 1012.8
20260508164036 66 270 7.0 16.0 0.00 0.00 0.00 45 1013.0
20260508163016 66 338 6.0 14.0 0.00 0.00 0.00 45 1013.1
20260508162037 66 315 5.0 11.0 0.00 0.00 0.00 48 1013.3
20260508161016 65 270 6.0 13.0 0.00 0.00 0.00 48 1013.5
20260508160016 65 270 7.0 14.0 0.00 0.00 0.00 46 1013.5
20260508155017 64 270 5.0 11.0 0.00 0.00 0.00 49 1013.6
20260508154017 64 293 6.0 13.0 0.00 0.00 0.00 51 1014.0
20260508153017 64 315 4.0 9.0 0.00 0.00 0.00 50 1013.9
20260508152017 64 315 6.0 12.0 0.00 0.00 0.00 46 1014.0
20260508151016 64 315 5.0 12.0 0.00 0.00 0.00 47 1014.1
20260508150016 64 315 4.0 12.0 0.00 0.00 0.00 48 1014.1
20260508145036 63 315 5.0 11.0 0.00 0.00 0.00 49 1014.1
20260508144016 62 293 4.0 11.0 0.00 0.00 0.00 52 1014.1
20260508143016 62 293 4.0 9.0 0.00 0.00 0.00 53 1014.2
20260508142037 62 315 4.0 10.0 0.00 0.00 0.00 51 1014.3
20260508141017 62 315 1.0 6.0 0.00 0.00 0.00 53 1014.2
20260508140017 62 270 3.0 7.0 0.00 0.00 0.00 48 1014.2
20260508135016 62 270 2.0 5.0 0.00 0.00 0.00 51 1014.4
20260508134016 62 270 3.0 8.0 0.00 0.00 0.00 49 1014.4
20260508133016 61 338 1.0 4.0 0.00 0.00 0.00 54 1014.5
20260508132016 60 293 1.0 5.0 0.00 0.00 0.00 55 1014.7
20260508131016 59 270 3.0 8.0 0.00 0.00 0.00 58 1014.7
20260508130016 59 270 3.0 5.0 0.00 0.00 0.00 60 1014.7
20260508125017 59 315 2.0 3.0 0.00 0.00 0.00 60 1014.8
20260508124016 59 270 2.0 4.0 0.00 0.00 0.00 64 1014.4
20260508123016 58 293 1.0 4.0 0.00 0.00 0.00 65 1014.6
20260508122016 57 315 1.0 4.0 0.00 0.00 0.00 67 1014.6
20260508121036 56 293 1.0 4.0 0.00 0.00 0.00 67 1014.5
20260508120016 55 0 2.0 4.0 0.00 0.00 0.00 69 1014.4
20260508115057 54 0.0 4.0 0.00 0.00 0.00 73 1014.4
20260508114017 52 23 1.0 4.0 0.00 0.00 0.00 76 1014.1
20260508113016 50 315 1.0 4.0 0.00 0.00 0.00 83 1014.2
20260508112036 47 0.0 2.0 0.00 0.00 0.00 89 1014.1
20260508111016 45 0.0 0.0 0.00 0.00 0.00 88 1014.1
20260508110016 44 0.0 0.0 0.00 0.00 0.00 87 1013.8
20260508105016 43 0.0 0.0 0.00 0.00 0.00 84 1013.7
20260508104017 44 0.0 0.0 0.00 0.00 0.00 83 1013.5
20260508103016 44 0.0 0.0 0.00 0.00 0.00 82 1013.6
20260508102016 45 0.0 0.0 0.00 0.00 0.00 81 1013.5
20260508101016 45 0.0 0.0 0.00 0.00 0.00 80 1013.4
20260508100016 46 0.0 0.0 0.00 0.00 0.00 79 1013.3
20260508095036 47 0.0 0.0 0.00 0.00 0.00 78 1013.0
20260508094017 48 0.0 1.0 0.00 0.00 0.00 76 1012.9
20260508093116 48 0.0 0.0 0.00 0.00 0.00 75 1012.9
20260508092016 49 0.0 1.0 0.00 0.00 0.00 74 1012.8
20260508091016 49 0.0 3.0 0.00 0.00 0.00 73 1012.9
20260508090016 50 0.0 2.0 0.00 0.00 0.00 72 1012.8
20260508085016 50 0.0 2.0 0.00 0.00 0.00 72 1012.7
20260508084036 51 315 1.0 4.0 0.00 0.00 0.00 71 1012.5
20260508083015 51 315 2.0 8.0 0.00 0.00 0.00 71 1012.4
20260508082016 51 315 1.0 5.0 0.00 0.00 0.00 71 1012.2
20260508081035 51 315 2.0 5.0 0.00 0.00 0.00 71 1011.9
20260508080016 52 315 3.0 9.0 0.00 0.00 0.00 71 1011.7
20260508075015 52 315 1.0 3.0 0.00 0.00 0.00 72 1011.5
20260508074016 52 315 2.0 5.0 0.00 0.00 0.00 72 1011.3
20260508073015 52 315 3.0 6.0 0.00 0.00 0.00 74 1011.1
20260508072015 52 315 2.0 4.0 0.00 0.00 0.00 76 1011.0
20260508071015 52 315 2.0 5.0 0.00 0.00 0.00 77 1010.8
20260508070015 52 315 2.0 6.0 0.00 0.00 0.00 79 1010.6
20260508065018 52 315 3.0 8.0 0.00 0.00 0.00 81 1010.4
20260508064018 52 315 3.0 8.0 0.00 0.00 0.00 83 1010.4
20260508063018 52 315 3.0 5.0 0.00 0.00 0.00 83 1010.1
20260508062018 52 315 2.0 5.0 0.00 0.00 0.00 83 1010.1
20260508061017 53 315 3.0 5.0 0.00 0.00 0.00 83 1010.1
20260508060057 53 315 2.0 5.0 0.00 0.00 0.00 82 1010.0
20260508055038 53 315 2.0 4.0 0.00 0.00 0.00 82 1009.9
20260508054017 53 315 3.0 8.0 0.00 0.01 0.00 82 1009.9
20260508053017 53 315 3.0 8.0 0.00 0.01 0.00 82 1009.9
20260508052037 53 315 2.0 9.0 0.00 0.01 0.00 82 1009.9
20260508051017 53 315 2.0 4.0 0.00 0.01 0.00 81 1009.8
20260508050037 53 315 2.0 4.0 0.00 0.01 0.00 81 1009.8
20260508045017 52 315 2.0 6.0 0.00 0.01 0.00 81 1009.8
20260508044017 52 315 3.0 8.0 0.00 0.01 0.00 80 1009.7
20260508043017 52 315 2.0 5.0 0.00 0.01 0.00 80 1009.6
20260508042017 52 315 2.0 6.0 0.00 0.01 0.00 80 1009.7
20260508041017 52 315 3.0 8.0 0.00 0.01 0.00 80 1009.8
20260508040017 52 315 2.0 6.0 0.00 0.01 0.01 79 1009.8
20260508035015 52 315 3.0 6.0 0.00 0.01 0.01 79 1009.7
20260508034015 53 315 3.0 6.0 0.00 0.01 0.01 78 1009.6
20260508033016 53 315 3.0 8.0 0.00 0.01 0.01 78 1009.6
20260508032016 53 315 4.0 9.0 0.00 0.01 0.01 78 1009.6
20260508031015 53 315 5.0 11.0 0.00 0.01 0.01 78 1009.7
20260508030036 53 315 4.0 14.0 0.00 0.01 0.01 78 1009.6
20260508025016 53 315 6.0 11.0 0.00 0.01 0.01 79 1009.7
20260508024015 52 315 5.0 12.0 0.00 0.01 0.01 81 1009.7
20260508023015 51 315 3.0 6.0 0.00 0.01 0.01 82 1009.6
20260508022015 51 315 2.0 4.0 0.00 0.01 0.01 83 1009.6
20260508021016 50 315 1.0 4.0 0.00 0.01 0.01 82 1009.5
20260508020015 50 315 1.0 3.0 0.00 0.01 0.01 79 1009.2
20260508015015 50 0.0 1.0 0.00 0.01 0.01 77 1009.1
20260508014015 51 315 1.0 2.0 0.00 0.01 0.01 75 1009.1
20260508013015 52 0.0 1.0 0.00 0.01 0.01 73 1008.9
20260508012016 52 0.0 0.0 0.00 0.01 0.01 72 1008.8
20260508011037 53 0.0 2.0 0.00 0.01 0.01 71 1008.6
20260508010015 54 0.0 0.0 0.00 0.01 0.01 69 1008.5
20260508005017 54 0.0 1.0 0.00 0.01 0.01 68 1008.4
20260508004017 55 0.0 0.0 0.00 0.01 0.01 63 1008.3
20260508003017 57 0.0 0.0 0.00 0.01 0.01 61 1008.3